Location: Amsterdam
(30.7274°N, 84.4357°W)
Time: 05:59:20
(UTC+00:00)

Tiros 1 despin weight - Pass Details

Date: 21 February 2026
Orbit: 556 x 593 km, 48.2° (Epoch: 13 March)

Event Time Altitude Azimuth Distance (km) Brightness Sun altitude
Rises 18:36:26 0° 241° (WSW) 2,755 ? 47.5°
Reaches altitude 10° 18:38:46 10° 247° (WSW) 1,854 ? 47.4°
Maximum altitude 18:42:52 49° 323° (NW) 729 ? 47.1°
Drops below altitude 10° 18:46:57 10° 39° (NE) 1,842 ? 46.8°
Sets 18:49:15 0° 45° (NE) 2,735 ? 46.6°
